,,Stat5,,Stat1,,Stat2,,Stat3,,Stat4,,Wind1,,Wind1,
time,status,PA1M_AVG,status,PR1M_SUM,status,RH1M_AVG,status,SR1M_AVG,status,TA1M_AVG,status,W1dAve1m,status,W1sAve1m,
2003-05-16, 00:00:00,VALID,918.526,VALID,0,VALID,91.1664,VALID,0.0509425,VALID,19.7032,VALID,5,VALID,0.619299,
2003-05-16, 00:01:00,VALID,918.531,VALID,0,VALID,91.2529,VALID,0.0849042,VALID,19.69,VALID,332,VALID,0.0976563,
2003-05-16, 00:02:00,VALID,918.513,VALID,0,VALID,91.1194,VALID,0.0849042,VALID,19.6875,VALID,332,VALID,0,
2003-05-16, 00:03:00,VALID,918.501,VALID,0,VALID,91.1245,VALID,0.101885,VALID,19.6999,VALID,14,VALID,0.395232,
2003-05-16, 00:04:00,VALID,918.484,VALID,0,VALID,91.2046,VALID,0.0849042,VALID,19.684,VALID,31,VALID,0.408717,
2003-05-16, 00:05:00,VALID,918.481,VALID,0,VALID,91.272,VALID,0.101885,VALID,19.6291,VALID,14,VALID,0.459936,
2003-05-16, 00:06:00,VALID,918.489,VALID,0,VALID,91.23,VALID,0.118866,VALID,19.6229,VALID,9,VALID,0.46875,
2003-05-16, 00:07:00,VALID,918.475,VALID,0,VALID,91.2338,VALID,0.118866,VALID,19.6065,VALID,29,VALID,0.982525,
2003-05-16, 00:08:00,VALID,918.462,VALID,0,VALID,91.45,VALID,0.101885,VALID,19.5545,VALID,36,VALID,0.755345,
2003-05-16, 00:09:00,VALID,918.458,VALID,0,VALID,91.6916,VALID,0.118866,VALID,19.5513,VALID,31,VALID,0.765831,
2003-05-16, 00:10:00,VALID,918.456,VALID,0,VALID,91.4805,VALID,0.0849042,VALID,19.6,VALID,23,VALID,0.77045,
2003-05-16, 00:11:00,VALID,918.465,VALID,0,VALID,91.4246,VALID,0.0509425,VALID,19.6134,VALID,22,VALID,0.591406,
2003-05-16, 00:12:00,VALID,918.452,VALID,0,VALID,91.3839,VALID,0.101885,VALID,19.5965,VALID,23,VALID,0.401843,
2003-05-16, 00:13:00,VALID,918.443,VALID,0,VALID,91.5187,VALID,0.0849042,VALID,19.5871,VALID,23,VALID,0.298725,
2003-05-16, 00:14:00,VALID,918.431,VALID,0,VALID,91.5848,VALID,0.118866,VALID,19.5515,VALID,23,VALID,0.515419,
2003-05-16, 00:15:00,VALID,918.403,VALID,0,VALID,91.6776,VALID,0.118866,VALID,19.5117,VALID,23,VALID,0.474159,
2003-05-16, 00:16:00,VALID,918.4,VALID,0,VALID,92.0489,VALID,0.101885,VALID,19.4866,VALID,357,VALID,0.283203,
2003-05-16, 00:17:00,VALID,918.392,VALID,0,VALID,92.1913,VALID,0.101885,VALID,19.4804,VALID,8,VALID,0.362753,
2003-05-16, 00:18:00,VALID,918.388,VALID,0,VALID,92.0998,VALID,0.118866,VALID,19.5254,VALID,13,VALID,0.282853,
2003-05-16, 00:19:00,VALID,918.371,VALID,0,VALID,91.9128,VALID,0.0849042,VALID,19.5326,VALID,13,VALID,0.113782,
2003-05-16, 00:20:00,VALID,918.361,VALID,0,VALID,91.8238,VALID,0.0509425,VALID,19.5361,VALID,13,VALID,0.178421,
2003-05-16, 00:21:00,VALID,918.347,VALID,0,VALID,91.8022,VALID,0.0679233,VALID,19.4998,VALID,30,VALID,0.402238,
2003-05-16, 00:22:00,VALID,918.337,VALID,0,VALID,91.8556,VALID,0.118866,VALID,19.4675,VALID,30,VALID,0.129492,
2003-05-16, 00:23:00,VALID,918.356,VALID,0,VALID,92.0553,VALID,0.0339617,VALID,19.4418,VALID,30,VALID,0.363971,
2003-05-16, 00:24:00,VALID,918.361,VALID,0,VALID,92.0629,VALID,0.101885,VALID,19.4443,VALID,30,VALID,0.348479,
2003-05-16, 00:25:00,VALID,918.354,VALID,0,VALID,91.979,VALID,0.0679233,VALID,19.4772,VALID,23,VALID,0.566106,
2003-05-16, 00:26:00,VALID,918.349,VALID,0,VALID,92.0451,VALID,0.101885,VALID,19.4998,VALID,30,VALID,0.393092,
2003-05-16, 00:27:00,VALID,918.322,VALID,0,VALID,92.0934,VALID,0.101885,VALID,19.4936,VALID,29,VALID,0.302837,
2003-05-16, 00:28:00,VALID,918.33,VALID,0,VALID,92.1481,VALID,0.0679233,VALID,19.4774,VALID,29,VALID,0.256479,
2003-05-16, 00:29:00,VALID,918.319,VALID,0,VALID,92.2091,VALID,0.118866,VALID,19.467,VALID,29,VALID,0.0645032,
2003-05-16, 00:30:00,VALID,918.315,VALID,0,VALID,92.321,VALID,0.101885,VALID,19.4536,VALID,29,VALID,0.200658,
2003-05-16, 00:31:00,VALID,918.302,VALID,0,VALID,92.3554,VALID,0.118866,VALID,19.4545,VALID,29,VALID,0.0751202,
2003-05-16, 00:32:00,VALID,918.285,VALID,0,VALID,92.4685,VALID,0.0849042,VALID,19.4513,VALID,29,VALID,0.00540865,
2003-05-16, 00:33:00,VALID,918.275,VALID,0,VALID,92.4914,VALID,0.0849042,VALID,19.4282,VALID,32,VALID,0.473157,
2003-05-16, 00:34:00,VALID,918.257,VALID,0,VALID,92.5881,VALID,0.0679233,VALID,19.3966,VALID,28,VALID,0.246505,
2003-05-16, 00:35:00,VALID,918.25,VALID,0,VALID,92.7585,VALID,0.135847,VALID,19.374,VALID,30,VALID,0.166941,
2003-05-16, 00:36:00,VALID,918.238,VALID,0,VALID,92.8068,VALID,0.0849042,VALID,19.374,VALID,22,VALID,0.85455,
2003-05-16, 00:37:00,VALID,918.227,VALID,0,VALID,92.733,VALID,0.0509425,VALID,19.3703,VALID,22,VALID,0.265039,
2003-05-16, 00:38:00,VALID,918.23,VALID,0,VALID,92.5423,VALID,0.0849042,VALID,19.3871,VALID,31,VALID,0.41324,
2003-05-16, 00:39:00,VALID,918.218,VALID,0,VALID,92.2473,VALID,0.101885,VALID,19.3901,VALID,29,VALID,0.852214,
2003-05-16, 00:40:00,VALID,918.191,VALID,0,VALID,92.2778,VALID,0.118866,VALID,19.3842,VALID,11,VALID,0.436233,
2003-05-16, 00:41:00,VALID,918.187,VALID,0,VALID,92.3376,VALID,0,VALID,19.3876,VALID,43,VALID,0.415625,
2003-05-16, 00:42:00,VALID,918.187,VALID,0,VALID,92.2867,VALID,0,VALID,19.4011,VALID,25,VALID,0.402539,
2003-05-16, 00:43:00,VALID,918.164,VALID,0,VALID,92.115,VALID,-0.0169808,VALID,19.4142,VALID,17,VALID,0.713742,
2003-05-16, 00:44:00,VALID,918.149,VALID,0,VALID,92.0629,VALID,0.0169808,VALID,19.4036,VALID,10,VALID,0.206836,
2003-05-16, 00:45:00,VALID,918.145,VALID,0,VALID,92.0387,VALID,0.0169808,VALID,19.4299,VALID,17,VALID,0.161133,
2003-05-16, 00:46:00,VALID,918.132,VALID,0,VALID,91.8861,VALID,0,VALID,19.4657,VALID,356,VALID,0.356841,
2003-05-16, 00:47:00,VALID,918.117,VALID,0,VALID,91.6611,VALID,0.0339617,VALID,19.4948,VALID,342,VALID,0.445946,
2003-05-16, 00:48:00,VALID,918.119,VALID,0,VALID,91.5632,VALID,0.0509425,VALID,19.4687,VALID,247,VALID,0.207227,
2003-05-16, 00:49:00,VALID,918.111,VALID,0,VALID,91.5441,VALID,-0.0509425,VALID,19.4821,VALID,240,VALID,0.0828125,
2003-05-16, 00:50:00,VALID,918.104,VALID,0,VALID,91.3572,VALID,-0.0509425,VALID,19.504,VALID,48,VALID,0.345508,
2003-05-16, 00:51:00,VALID,918.113,VALID,0,VALID,91.1346,VALID,0,VALID,19.553,VALID,51,VALID,0.138421,
2003-05-16, 00:52:00,VALID,918.095,VALID,0,VALID,91.0138,VALID,-0.0169808,VALID,19.5851,VALID,63,VALID,0.244243,
2003-05-16, 00:53:00,VALID,918.092,VALID,0,VALID,90.9922,VALID,0.0169808,VALID,19.6246,VALID,343,VALID,0.291735,
2003-05-16, 00:54:00,VALID,918.074,VALID,0,VALID,90.9566,VALID,0,VALID,19.6017,VALID,113,VALID,0.136018,
2003-05-16, 00:55:00,VALID,918.077,VALID,0,VALID,90.9235,VALID,0.0849042,VALID,19.6074,VALID,122,VALID,0.111914,
2003-05-16, 00:56:00,VALID,918.077,VALID,0,VALID,90.7112,VALID,0.101885,VALID,19.6025,VALID,156,VALID,0.187078,
2003-05-16, 00:57:00,VALID,918.073,VALID,0,VALID,90.5421,VALID,0.135847,VALID,19.6159,VALID,130,VALID,0.26262,
2003-05-16, 00:58:00,VALID,918.067,VALID,0,VALID,90.5904,VALID,0.118866,VALID,19.6353,VALID,131,VALID,0.184295,
2003-05-16, 00:59:00,VALID,918.05,VALID,0,VALID,90.5192,VALID,0.101885,VALID,19.6609,VALID,147,VALID,0.326436,
2003-05-16, 01:00:00,VALID,918.045,VALID,0,VALID,90.6997,VALID,0.169808,VALID,19.6681,VALID,1,VALID,0.366343,
2003-05-16, 01:01:00,VALID,918.028,VALID,0,VALID,90.7977,VALID,0.135847,VALID,19.652,VALID,359,VALID,0.201367,
2003-05-16, 01:02:00,VALID,918.01,VALID,0,VALID,90.8752,VALID,0.0849042,VALID,19.639,VALID,359,VALID,0.0847886,
2003-05-16, 01:03:00,VALID,918.015,VALID,0,VALID,90.8434,VALID,0.135847,VALID,19.6293,VALID,360,VALID,0.184005,
2003-05-16, 01:04:00,VALID,918.008,VALID,0,VALID,90.8803,VALID,0.118866,VALID,19.6094,VALID,5,VALID,0.38141,
2003-05-16, 01:05:00,VALID,918,VALID,0,VALID,91.0011,VALID,0.0849042,VALID,19.6166,VALID,61,VALID,0.108758,
2003-05-16, 01:06:00,VALID,917.985,VALID,0,VALID,90.977,VALID,0.135847,VALID,19.6226,VALID,76,VALID,0.000822368,
2003-05-16, 01:07:00,VALID,917.975,VALID,0,VALID,90.8116,VALID,0.118866,VALID,19.6231,VALID,76,VALID,0.0142912,
2003-05-16, 01:08:00,VALID,917.973,VALID,0,VALID,90.4365,VALID,0.0849042,VALID,19.6132,VALID,76,VALID,0.15024,
2003-05-16, 01:09:00,VALID,917.963,VALID,0,VALID,90.7214,VALID,0.101885,VALID,19.6425,VALID,73,VALID,0.134663,
2003-05-16, 01:10:00,VALID,917.94,VALID,0,VALID,90.7798,VALID,0.118866,VALID,19.6351,VALID,102,VALID,0.241987,
2003-05-16, 01:11:00,VALID,917.941,VALID,0,VALID,90.5739,VALID,0.0849042,VALID,19.6455,VALID,173,VALID,0.392628,
2003-05-16, 01:12:00,VALID,917.926,VALID,0,VALID,90.4009,VALID,0.0679233,VALID,19.6579,VALID,166,VALID,0.0799279,
2003-05-16, 01:13:00,VALID,917.92,VALID,0,VALID,90.551,VALID,0.101885,VALID,19.7131,VALID,166,VALID,0.0964227,
2003-05-16, 01:14:00,VALID,917.915,VALID,0,VALID,90.537,VALID,0.118866,VALID,19.7295,VALID,165,VALID,0.10588,
2003-05-16, 01:15:00,VALID,917.908,VALID,0,VALID,90.3411,VALID,0.0509425,VALID,19.7487,VALID,165,VALID,0.0179228,
2003-05-16, 01:16:00,VALID,917.886,VALID,0,VALID,90.5917,VALID,0.0849042,VALID,19.7459,VALID,165,VALID,0.00117188,
2003-05-16, 01:17:00,VALID,917.881,VALID,0,VALID,90.5599,VALID,0.118866,VALID,19.7124,VALID,163,VALID,0.0705181,
2003-05-16, 01:18:00,VALID,917.863,VALID,0,VALID,90.4747,VALID,0.118866,VALID,19.7067,VALID,133,VALID,0.251085,
2003-05-16, 01:19:00,VALID,917.858,VALID,0,VALID,90.3119,VALID,0.152827,VALID,19.7007,VALID,50,VALID,0.294975,
2003-05-16, 01:20:00,VALID,917.844,VALID,0,VALID,90.0728,VALID,0.0849042,VALID,19.69,VALID,40,VALID,0.134375,
2003-05-16, 01:21:00,VALID,917.833,VALID,0,VALID,89.7384,VALID,0.135847,VALID,19.6679,VALID,41,VALID,0.189453,
2003-05-16, 01:22:00,VALID,917.815,VALID,0,VALID,89.2247,VALID,0.101885,VALID,19.6512,VALID,41,VALID,0.0604968,
2003-05-16, 01:23:00,VALID,917.811,VALID,0,VALID,88.6219,VALID,0.0849042,VALID,19.6617,VALID,76,VALID,0.175391,
2003-05-16, 01:24:00,VALID,917.8,VALID,0,VALID,88.6779,VALID,0.101885,VALID,19.6743,VALID,73,VALID,0.0121094,
2003-05-16, 01:25:00,VALID,917.8,VALID,0,VALID,89.2183,VALID,0.118866,VALID,19.7258,VALID,73,VALID,0.0618666,
2003-05-16, 01:26:00,VALID,917.801,VALID,0,VALID,89.4739,VALID,0.118866,VALID,19.7328,VALID,73,VALID,0.108319,
2003-05-16, 01:27:00,VALID,917.786,VALID,0,VALID,90.1809,VALID,0.152827,VALID,19.7231,VALID,50,VALID,0.216016,
2003-05-16, 01:28:00,VALID,917.773,VALID,0,VALID,89.6303,VALID,0.0509425,VALID,19.6843,VALID,21,VALID,0.34442,
2003-05-16, 01:29:00,VALID,917.756,VALID,0,VALID,88.4477,VALID,0.0679233,VALID,19.6813,VALID,13,VALID,0.651758,
2003-05-16, 01:30:00,VALID,917.726,VALID,0,VALID,88.332,VALID,0.101885,VALID,19.6967,VALID,10,VALID,0.408454,
2003-05-16, 01:31:00,VALID,917.71,VALID,0,VALID,88.2074,VALID,0.118866,VALID,19.729,VALID,25,VALID,0.150082,
2003-05-16, 01:32:00,VALID,917.706,VALID,0,VALID,87.8742,VALID,0.152827,VALID,19.7713,VALID,91,VALID,0.201891,
2003-05-16, 01:33:00,VALID,917.703,VALID,0,VALID,88.3244,VALID,0.118866,VALID,19.8198,VALID,82,VALID,0.202524,
2003-05-16, 01:34:00,VALID,917.676,VALID,0,VALID,88.7237,VALID,0.118866,VALID,19.8392,VALID,349,VALID,0.670313,
2003-05-16, 01:35:00,VALID,917.641,VALID,0,VALID,89.4472,VALID,0.118866,VALID,19.7584,VALID,31,VALID,0.581292,
2003-05-16, 01:36:00,VALID,917.606,VALID,0,VALID,89.4027,VALID,0.101885,VALID,19.6773,VALID,204,VALID,0.38141,
2003-05-16, 01:37:00,VALID,917.609,VALID,0,VALID,89.0034,VALID,0.118866,VALID,19.6452,VALID,135,VALID,0.355369,
2003-05-16, 01:38:00,VALID,917.597,VALID,0,VALID,88.6842,VALID,0.0679233,VALID,19.6487,VALID,45,VALID,0.470439,
2003-05-16, 01:39:00,VALID,917.572,VALID,0,VALID,88.4109,VALID,0.152827,VALID,19.697,VALID,19,VALID,0.693623,
2003-05-16, 01:40:00,VALID,917.539,VALID,0,VALID,87.9696,VALID,0.101885,VALID,19.7193,VALID,328,VALID,0.686719,
2003-05-16, 01:41:00,VALID,917.555,VALID,0,VALID,86.9243,VALID,0.0169808,VALID,19.736,VALID,122,VALID,0.435202,
2003-05-16, 01:42:00,VALID,917.571,VALID,0,VALID,87.653,VALID,0.0849042,VALID,19.8041,VALID,22,VALID,0.903988,
2003-05-16, 01:43:00,VALID,917.559,VALID,0,VALID,86.9956,VALID,0.0679233,VALID,19.8171,VALID,45,VALID,1.51883,
2003-05-16, 01:44:00,VALID,917.554,VALID,0,VALID,86.0419,VALID,0.118866,VALID,19.868,VALID,212,VALID,0.58861,
2003-05-16, 01:45:00,VALID,917.582,VALID,0,VALID,85.71,VALID,0.0849042,VALID,19.9364,VALID,122,VALID,0.486842,
2003-05-16, 01:46:00,VALID,917.571,VALID,0,VALID,83.9373,VALID,0.0679233,VALID,19.9981,VALID,166,VALID,0.708841,
2003-05-16, 01:47:00,VALID,917.563,VALID,0,VALID,82.9239,VALID,0.0849042,VALID,20.1304,VALID,47,VALID,0.666667,
2003-05-16, 01:48:00,VALID,917.564,VALID,0,VALID,83.1655,VALID,0.0849042,VALID,20.2595,VALID,15,VALID,0.378084,
2003-05-16, 01:49:00,VALID,917.552,VALID,0,VALID,83.2418,VALID,0.101885,VALID,20.3408,VALID,22,VALID,0.479367,
2003-05-16, 01:50:00,VALID,917.526,VALID,0,VALID,83.3893,VALID,0.135847,VALID,20.3177,VALID,358,VALID,0.766426,
2003-05-16, 01:51:00,VALID,917.533,VALID,0,VALID,83.3778,VALID,0.101885,VALID,20.3144,VALID,8,VALID,0.518429,
2003-05-16, 01:52:00,VALID,917.519,VALID,0,VALID,83.4847,VALID,0.118866,VALID,20.2921,VALID,28,VALID,0.179071,
2003-05-16, 01:53:00,VALID,917.508,VALID,0,VALID,81.9689,VALID,0.118866,VALID,20.2853,VALID,78,VALID,0.552426,
2003-05-16, 01:54:00,VALID,917.491,VALID,0,VALID,79.5389,VALID,0.0339617,VALID,20.45,VALID,302,VALID,1.31273,
2003-05-16, 01:55:00,VALID,917.484,VALID,0,VALID,79.8949,VALID,0.0849042,VALID,20.6641,VALID,61,VALID,0.435937,
2003-05-16, 01:56:00,VALID,917.499,VALID,0,VALID,79.1091,VALID,0.101885,VALID,20.7286,VALID,174,VALID,0.704153,
2003-05-16, 01:57:00,VALID,917.463,VALID,0,VALID,78.4033,VALID,0.118866,VALID,20.7709,VALID,200,VALID,0.481771,
2003-05-16, 01:58:00,VALID,917.461,VALID,0,VALID,80.3425,VALID,0.152827,VALID,20.8,VALID,16,VALID,0.677576,
2003-05-16, 01:59:00,VALID,917.456,VALID,0,VALID,80.8321,VALID,0.101885,VALID,20.7181,VALID,12,VALID,0.207422,
2003-05-16, 02:00:00,VALID,917.486,VALID,0,VALID,80.3273,VALID,0.118866,VALID,20.6469,VALID,3,VALID,0.608203,
2003-05-16, 02:01:00,VALID,917.489,VALID,0,VALID,81.1411,VALID,0.101885,VALID,20.6054,VALID,16,VALID,0.559495,
2003-05-16, 02:02:00,VALID,917.459,VALID,0,VALID,81.9269,VALID,0.118866,VALID,20.5243,VALID,8,VALID,0.595117,
2003-05-16, 02:03:00,VALID,917.449,VALID,0,VALID,81.8316,VALID,0.135847,VALID,20.4206,VALID,56,VALID,0.389648,
2003-05-16, 02:04:00,VALID,917.441,VALID,0,VALID,81.2009,VALID,0.101885,VALID,20.3761,VALID,108,VALID,0.574113,
2003-05-16, 02:05:00,VALID,917.461,VALID,0,VALID,82.6797,VALID,0.0849042,VALID,20.3398,VALID,134,VALID,0.149071,
2003-05-16, 02:06:00,VALID,917.461,VALID,0,VALID,82.8908,VALID,0.118866,VALID,20.3075,VALID,148,VALID,0.250391,
2003-05-16, 02:07:00,VALID,917.478,VALID,0,VALID,83.032,VALID,0.0509425,VALID,20.2662,VALID,200,VALID,0.302679,
2003-05-16, 02:08:00,VALID,917.466,VALID,0,VALID,83.8026,VALID,0.101885,VALID,20.1816,VALID,205,VALID,0.0947266,
2003-05-16, 02:09:00,VALID,917.466,VALID,0,VALID,84.0747,VALID,0.135847,VALID,20.1003,VALID,192,VALID,0.112179,
2003-05-16, 02:10:00,VALID,917.448,VALID,0,VALID,84.8605,VALID,0.135847,VALID,20.0424,VALID,10,VALID,0.520765,
2003-05-16, 02:11:00,VALID,917.434,VALID,0,VALID,85.1314,VALID,0.118866,VALID,19.9327,VALID,4,VALID,0.298931,
2003-05-16, 02:12:00,VALID,917.431,VALID,0,VALID,85.1759,VALID,0.101885,VALID,19.8554,VALID,125,VALID,0.197917,
2003-05-16, 02:13:00,VALID,917.425,VALID,0,VALID,84.802,VALID,0.101885,VALID,19.7962,VALID,112,VALID,0.104297,
2003-05-16, 02:14:00,VALID,917.423,VALID,0,VALID,85.5434,VALID,0.0849042,VALID,19.778,VALID,32,VALID,0.741343,
2003-05-16, 02:15:00,VALID,917.435,VALID,0,VALID,85.8041,VALID,0.118866,VALID,19.7193,VALID,350,VALID,0.595353,
2003-05-16, 02:16:00,VALID,917.423,VALID,0,VALID,85.5955,VALID,0.118866,VALID,19.6644,VALID,334,VALID,0.723357,
2003-05-16, 02:17:00,VALID,917.411,VALID,0,VALID,85.7634,VALID,0.0679233,VALID,19.6781,VALID,210,VALID,0.384713,
2003-05-16, 02:18:00,VALID,917.406,VALID,0,VALID,85.1873,VALID,0.0849042,VALID,19.6617,VALID,107,VALID,0.309966,
2003-05-16, 02:19:00,VALID,917.409,VALID,0,VALID,85.4417,VALID,0.135847,VALID,19.6517,VALID,90,VALID,0.216992,
2003-05-16, 02:20:00,VALID,917.416,VALID,0,VALID,84.4613,VALID,0.0339617,VALID,19.6746,VALID,173,VALID,0.607077,
2003-05-16, 02:21:00,VALID,917.445,VALID,0,VALID,82.9824,VALID,0.135847,VALID,19.7459,VALID,196,VALID,0.671053,
2003-05-16, 02:22:00,VALID,917.428,VALID,0,VALID,83.7708,VALID,0.135847,VALID,19.8586,VALID,358,VALID,0.584535,
2003-05-16, 02:23:00,VALID,917.423,VALID,0,VALID,84.6533,VALID,0.101885,VALID,19.8457,VALID,38,VALID,0.222039,
2003-05-16, 02:24:00,VALID,917.415,VALID,0,VALID,85.1657,VALID,0.152827,VALID,19.7681,VALID,358,VALID,0.569285,
2003-05-16, 02:25:00,VALID,917.41,VALID,0,VALID,85.6133,VALID,0.0849042,VALID,19.6323,VALID,30,VALID,0.752668,
2003-05-16, 02:26:00,VALID,917.4,VALID,0,VALID,86.389,VALID,0.152827,VALID,19.5324,VALID,23,VALID,1.29507,
2003-05-16, 02:27:00,VALID,917.379,VALID,0,VALID,86.9205,VALID,0.118866,VALID,19.4058,VALID,358,VALID,0.388569,
2003-05-16, 02:28:00,VALID,917.367,VALID,0,VALID,86.4297,VALID,0.101885,VALID,19.361,VALID,46,VALID,0.732973,
2003-05-16, 02:29:00,VALID,917.356,VALID,0,VALID,86.539,VALID,0.101885,VALID,19.3742,VALID,18,VALID,0.578325,
2003-05-16, 02:30:00,VALID,917.361,VALID,0,VALID,86.8811,VALID,0.0679233,VALID,19.3643,VALID,32,VALID,0.286058,
2003-05-16, 02:31:00,VALID,917.358,VALID,0,VALID,87.2486,VALID,0.101885,VALID,19.3324,VALID,43,VALID,0.344984,
2003-05-16, 02:32:00,VALID,917.354,VALID,0,VALID,87.11,VALID,0.101885,VALID,19.2872,VALID,30,VALID,0.222245,
2003-05-16, 02:33:00,VALID,917.352,VALID,0,VALID,86.979,VALID,0.0339617,VALID,19.2611,VALID,30,VALID,0.00344669,
2003-05-16, 02:34:00,VALID,917.359,VALID,0,VALID,87.1011,VALID,0.0169808,VALID,19.2452,VALID,38,VALID,0.220117,
2003-05-16, 02:35:00,VALID,917.354,VALID,0,VALID,87.068,VALID,0.0679233,VALID,19.2482,VALID,59,VALID,0.662829,
2003-05-16, 02:36:00,VALID,917.342,VALID,0,VALID,86.5696,VALID,0.101885,VALID,19.271,VALID,36,VALID,0.478299,
2003-05-16, 02:37:00,VALID,917.373,VALID,0,VALID,86.8519,VALID,0.118866,VALID,19.3193,VALID,35,VALID,0.610008,
2003-05-16, 02:38:00,VALID,917.362,VALID,0,VALID,87.0591,VALID,0.0679233,VALID,19.3093,VALID,87,VALID,0.461133,
2003-05-16, 02:39:00,VALID,917.355,VALID,0,VALID,86.5403,VALID,0.118866,VALID,19.2899,VALID,223,VALID,0.0355469,
2003-05-16, 02:40:00,VALID,917.359,VALID,0,VALID,85.9452,VALID,0.0679233,VALID,19.2996,VALID,217,VALID,0.0254407,
2003-05-16, 02:41:00,VALID,917.347,VALID,0,VALID,87.1189,VALID,0.0849042,VALID,19.2934,VALID,26,VALID,0.558594,
2003-05-16, 02:42:00,VALID,917.34,VALID,0,VALID,87.5919,VALID,0.0679233,VALID,19.1997,VALID,354,VALID,0.204688,
2003-05-16, 02:43:00,VALID,917.356,VALID,0,VALID,86.8035,VALID,0.0679233,VALID,19.1644,VALID,358,VALID,0.484164,
2003-05-16, 02:44:00,VALID,917.332,VALID,0,VALID,87.269,VALID,0.0679233,VALID,19.1703,VALID,16,VALID,0.519848,
2003-05-16, 02:45:00,VALID,917.337,VALID,0,VALID,87.5525,VALID,0.135847,VALID,19.1316,VALID,355,VALID,0.112695,
2003-05-16, 02:46:00,VALID,917.365,VALID,0,VALID,87.3656,VALID,0.0339617,VALID,19.0672,VALID,355,VALID,0.244643,
2003-05-16, 02:47:00,VALID,917.384,VALID,0,VALID,86.9091,VALID,0.0509425,VALID,19.093,VALID,360,VALID,1.0168,
2003-05-16, 02:48:00,VALID,917.395,VALID,0,VALID,86.9434,VALID,0.0509425,VALID,19.1678,VALID,199,VALID,0.282252,
2003-05-16, 02:49:00,VALID,917.417,VALID,0,VALID,87.2995,VALID,0.101885,VALID,19.1616,VALID,58,VALID,0.805304,
2003-05-16, 02:50:00,VALID,917.39,VALID,0,VALID,86.9739,VALID,0.118866,VALID,19.1159,VALID,54,VALID,0.494655,
2003-05-16, 02:51:00,VALID,917.348,VALID,0,VALID,85.8041,VALID,0.0849042,VALID,19.1027,VALID,182,VALID,0.769832,
2003-05-16, 02:52:00,VALID,917.394,VALID,0,VALID,85.6209,VALID,0.0849042,VALID,19.1646,VALID,179,VALID,0.506055,
2003-05-16, 02:53:00,VALID,917.39,VALID,0,VALID,84.7283,VALID,0.0849042,VALID,19.22,VALID,245,VALID,0.573057,
2003-05-16, 02:54:00,VALID,917.391,VALID,0,VALID,83.3715,VALID,0.0849042,VALID,19.4811,VALID,296,VALID,0.61899,
2003-05-16, 02:55:00,VALID,917.4,VALID,0,VALID,83.1426,VALID,0.152827,VALID,19.6094,VALID,297,VALID,0.640625,
2003-05-16, 02:56:00,VALID,917.372,VALID,0,VALID,83.1604,VALID,0.118866,VALID,19.6773,VALID,82,VALID,0.805321,
2003-05-16, 02:57:00,VALID,917.357,VALID,0,VALID,82.4508,VALID,0.186789,VALID,19.6935,VALID,278,VALID,0.480997,
2003-05-16, 02:58:00,VALID,917.375,VALID,0,VALID,82.6899,VALID,0.20377,VALID,19.7121,VALID,11,VALID,0.776953,
2003-05-16, 02:59:00,VALID,917.383,VALID,0,VALID,82.9608,VALID,0.152827,VALID,19.6838,VALID,32,VALID,0.256434,
2003-05-16, 03:00:00,VALID,917.38,VALID,0,VALID,82.8883,VALID,0.152827,VALID,19.6639,VALID,81,VALID,0.114104,
2003-05-16, 03:01:00,VALID,917.371,VALID,0,VALID,82.9175,VALID,0.20377,VALID,19.6475,VALID,81,VALID,0.0973558,
2003-05-16, 03:02:00,VALID,917.339,VALID,0,VALID,83.3651,VALID,0.20377,VALID,19.6343,VALID,80,VALID,0.140419,
2003-05-16, 03:03:00,VALID,917.341,VALID,0,VALID,83.1121,VALID,0.220751,VALID,19.6055,VALID,59,VALID,0.39926,
2003-05-16, 03:04:00,VALID,917.315,VALID,0,VALID,84.0022,VALID,0.20377,VALID,19.5575,VALID,351,VALID,0.653011,
2003-05-16, 03:05:00,VALID,917.306,VALID,0,VALID,83.9717,VALID,0.220751,VALID,19.5058,VALID,356,VALID,0.28726,
2003-05-16, 03:06:00,VALID,917.291,VALID,0,VALID,84.3379,VALID,0.20377,VALID,19.4764,VALID,340,VALID,0.639803,
2003-05-16, 03:07:00,VALID,917.308,VALID,0,VALID,84.4307,VALID,0.186789,VALID,19.4284,VALID,18,VALID,1.128,
2003-05-16, 03:08:00,VALID,917.315,VALID,0,VALID,83.7237,VALID,0.186789,VALID,19.3601,VALID,82,VALID,0.454527,
2003-05-16, 03:09:00,VALID,917.316,VALID,0,VALID,82.5335,VALID,0.169808,VALID,19.4085,VALID,212,VALID,1.04828,
2003-05-16, 03:10:00,VALID,917.314,VALID,0,VALID,80.4341,VALID,0.135847,VALID,19.7169,VALID,267,VALID,1.32813,
2003-05-16, 03:11:00,VALID,917.321,VALID,0,VALID,80.9656,VALID,0.101885,VALID,19.9407,VALID,354,VALID,0.729646,
2003-05-16, 03:12:00,VALID,917.291,VALID,0,VALID,80.8334,VALID,0.0339617,VALID,19.9213,VALID,330,VALID,0.960478,
2003-05-16, 03:13:00,VALID,917.239,VALID,0,VALID,81.4094,VALID,0.0339617,VALID,19.8947,VALID,48,VALID,1.09102,
2003-05-16, 03:14:00,VALID,917.268,VALID,0,VALID,81.1449,VALID,0.0849042,VALID,19.834,VALID,215,VALID,0.810444,
2003-05-16, 03:15:00,VALID,917.275,VALID,0,VALID,80.3883,VALID,0.0679233,VALID,19.8534,VALID,208,VALID,0.903212,
2003-05-16, 03:16:00,VALID,917.262,VALID,0,VALID,80.6464,VALID,0.118866,VALID,19.928,VALID,218,VALID,0.641892,
2003-05-16, 03:17:00,VALID,917.279,VALID,0,VALID,80.4557,VALID,0.0509425,VALID,19.9504,VALID,197,VALID,0.779297,
2003-05-16, 03:18:00,VALID,917.291,VALID,0,VALID,79.9941,VALID,0.0679233,VALID,19.9663,VALID,212,VALID,0.756641,
2003-05-16, 03:19:00,VALID,917.282,VALID,0,VALID,79.1192,VALID,0.101885,VALID,20.0215,VALID,216,VALID,0.645232,
2003-05-16, 03:20:00,VALID,917.272,VALID,0,VALID,79.8224,VALID,0.118866,VALID,20.1212,VALID,254,VALID,0.360742,
2003-05-16, 03:21:00,VALID,917.255,VALID,0,VALID,81.2301,VALID,0.0679233,VALID,20.024,VALID,28,VALID,0.630078,
2003-05-16, 03:22:00,VALID,917.24,VALID,0,VALID,81.4781,VALID,0.0339617,VALID,19.8852,VALID,325,VALID,0.663007,
2003-05-16, 03:23:00,VALID,917.232,VALID,0,VALID,81.7057,VALID,0.101885,VALID,19.7524,VALID,312,VALID,0.937711,
2003-05-16, 03:24:00,VALID,917.241,VALID,0,VALID,80.7062,VALID,0.0849042,VALID,19.7432,VALID,257,VALID,0.195703,
2003-05-16, 03:25:00,VALID,917.241,VALID,0,VALID,81.0737,VALID,0.0339617,VALID,19.8345,VALID,332,VALID,0.116741,
2003-05-16, 03:26:00,VALID,917.241,VALID,0,VALID,81.3077,VALID,0.0509425,VALID,19.7857,VALID,329,VALID,0.278906,
2003-05-16, 03:27:00,VALID,917.222,VALID,0,VALID,81.5772,VALID,0.0679233,VALID,19.779,VALID,64,VALID,0.51863,
2003-05-16, 03:28:01,VALID,917.226,VALID,0,VALID,82.6454,VALID,0.0849042,VALID,19.7079,VALID,27,VALID,0.770354,
2003-05-16, 03:29:00,VALID,917.215,VALID,0,VALID,83.341,VALID,0.101885,VALID,19.5627,VALID,313,VALID,0.696957,
2003-05-16, 03:30:01,VALID,917.235,VALID,0,VALID,83.7911,VALID,0.0679233,VALID,19.4165,VALID,249,VALID,0.133013,
2003-05-16, 03:31:00,VALID,917.237,VALID,0,VALID,83.7275,VALID,0.0849042,VALID,19.3551,VALID,249,VALID,0.0101562,
2003-05-16, 03:32:00,VALID,917.218,VALID,0,VALID,84.0658,VALID,0.0679233,VALID,19.3593,VALID,234,VALID,0.40625,
2003-05-16, 03:33:00,VALID,917.228,VALID,0,VALID,84.1472,VALID,0.0679233,VALID,19.2941,VALID,137,VALID,0.66847,